Year,Month,Day,Hour,Minute,Value (Times are PST for windgust in km/hr)
2010,07,12,00,00,25.70
2010,07,12,00,01,22.50
2010,07,12,00,02,17.70
2010,07,12,00,03,16.10
2010,07,12,00,04,25.70
2010,07,12,00,05,27.40
2010,07,12,00,06,22.50
2010,07,12,00,07,22.50
2010,07,12,00,08,25.70
2010,07,12,00,09,29.00
2010,07,12,00,10,32.20
2010,07,12,00,11,22.50
2010,07,12,00,12,32.20
2010,07,12,00,13,27.40
2010,07,12,00,14,24.20
2010,07,12,00,15,19.30
2010,07,12,00,16,25.70
2010,07,12,00,17,16.10
2010,07,12,00,18,19.30
2010,07,12,00,19,29.00
2010,07,12,00,20,19.30
2010,07,12,00,21,16.10
2010,07,12,00,22,16.10
2010,07,12,00,23,16.10
2010,07,12,00,24,24.20
2010,07,12,00,25,25.70
2010,07,12,00,26,20.90
2010,07,12,00,27,24.20
2010,07,12,00,28,22.50
2010,07,12,00,29,16.10
2010,07,12,00,30,17.70
2010,07,12,00,31,11.30
2010,07,12,00,32,17.70
2010,07,12,00,33,19.30
2010,07,12,00,34,24.20
2010,07,12,00,35,19.30
2010,07,12,00,36,24.20
2010,07,12,00,37,22.50
2010,07,12,00,38,24.20
2010,07,12,00,39,16.10
2010,07,12,00,40,14.50
2010,07,12,00,41,20.90
2010,07,12,00,42,14.50
2010,07,12,00,43,14.50
2010,07,12,00,44,17.70
2010,07,12,00,45,20.90
2010,07,12,00,46,16.10
2010,07,12,00,47,16.10
2010,07,12,00,48,17.70
2010,07,12,00,49,19.30
2010,07,12,00,50,19.30
2010,07,12,00,51,19.30
2010,07,12,00,52,19.30
2010,07,12,00,53,16.10
2010,07,12,00,54,22.50
2010,07,12,00,55,19.30
2010,07,12,00,56,17.70
2010,07,12,00,57,19.30
2010,07,12,00,58,19.30
2010,07,12,00,59,17.70
2010,07,12,01,00,19.30
2010,07,12,01,01,20.90
2010,07,12,01,02,12.90
2010,07,12,01,03,22.50
2010,07,12,01,04,25.70
2010,07,12,01,05,24.20
2010,07,12,01,06,24.20
2010,07,12,01,07,17.70
2010,07,12,01,08,19.30
2010,07,12,01,09,20.90
2010,07,12,01,10,17.70
2010,07,12,01,11,19.30
2010,07,12,01,12,20.90
2010,07,12,01,13,20.90
2010,07,12,01,14,17.70
2010,07,12,01,15,20.90
2010,07,12,01,16,16.10
2010,07,12,01,17,17.70
2010,07,12,01,18,22.50
2010,07,12,01,19,17.70
2010,07,12,01,20,22.50
2010,07,12,01,21,20.90
2010,07,12,01,22,16.10
2010,07,12,01,23,16.10
2010,07,12,01,24,14.50
2010,07,12,01,25,11.30
2010,07,12,01,26,11.30
2010,07,12,01,27,19.30
2010,07,12,01,28,16.10
2010,07,12,01,29,16.10
2010,07,12,01,30,24.20
2010,07,12,01,31,20.90
2010,07,12,01,32,14.50
2010,07,12,01,33,19.30
2010,07,12,01,34,24.20
2010,07,12,01,35,20.90
2010,07,12,01,36,16.10
2010,07,12,01,37,20.90
2010,07,12,01,38,17.70
2010,07,12,01,39,20.90
2010,07,12,01,40,22.50
2010,07,12,01,41,14.50
2010,07,12,01,42,16.10
2010,07,12,01,43,16.10
2010,07,12,01,44,22.50
2010,07,12,01,45,22.50
2010,07,12,01,46,17.70
2010,07,12,01,47,16.10
2010,07,12,01,48,17.70
2010,07,12,01,49,12.90
2010,07,12,01,50,17.70
2010,07,12,01,51,22.50
2010,07,12,01,52,22.50
2010,07,12,01,53,22.50
2010,07,12,01,54,17.70
2010,07,12,01,55,19.30
2010,07,12,01,56,20.90
2010,07,12,01,57,25.70
2010,07,12,01,58,12.90
2010,07,12,01,59,17.70
2010,07,12,02,00,19.30
2010,07,12,02,01,17.70
2010,07,12,02,02,19.30
2010,07,12,02,03,22.50
2010,07,12,02,04,16.10
2010,07,12,02,05,16.10
2010,07,12,02,06,16.10
2010,07,12,02,07,8.10
2010,07,12,02,08,24.20
2010,07,12,02,09,20.90
2010,07,12,02,10,14.50
2010,07,12,02,11,9.60
2010,07,12,02,12,11.30
2010,07,12,02,13,14.50
2010,07,12,02,14,19.30
2010,07,12,02,15,9.60
2010,07,12,02,16,16.10
2010,07,12,02,17,16.10
2010,07,12,02,18,11.30
2010,07,12,02,19,11.30
2010,07,12,02,20,14.50
2010,07,12,02,21,12.90
2010,07,12,02,22,22.50
2010,07,12,02,23,20.90
2010,07,12,02,24,20.90
2010,07,12,02,25,22.50
2010,07,12,02,26,19.30
2010,07,12,02,27,22.50
2010,07,12,02,28,19.30
2010,07,12,02,29,19.30
2010,07,12,02,30,16.10
2010,07,12,02,31,17.70
2010,07,12,02,32,19.30
2010,07,12,02,33,11.30
2010,07,12,02,34,17.70
2010,07,12,02,35,17.70
2010,07,12,02,36,17.70
2010,07,12,02,37,19.30
2010,07,12,02,38,16.10
2010,07,12,02,39,16.10
2010,07,12,02,40,22.50
2010,07,12,02,41,20.90
2010,07,12,02,42,24.20
2010,07,12,02,43,24.20
2010,07,12,02,44,19.30
2010,07,12,02,45,19.30
2010,07,12,02,46,16.10
2010,07,12,02,47,17.70
2010,07,12,02,48,22.50
2010,07,12,02,49,19.30
2010,07,12,02,50,11.30
2010,07,12,02,51,14.50
2010,07,12,02,52,22.50
2010,07,12,02,53,16.10
2010,07,12,02,54,14.50
2010,07,12,02,55,11.30
2010,07,12,02,56,19.30
2010,07,12,02,57,19.30
2010,07,12,02,58,16.10
2010,07,12,02,59,22.50
2010,07,12,03,00,22.50
2010,07,12,03,01,20.90
2010,07,12,03,02,20.90
2010,07,12,03,03,16.10
2010,07,12,03,04,17.70
2010,07,12,03,05,19.30
2010,07,12,03,06,19.30
2010,07,12,03,07,25.70
2010,07,12,03,08,22.50
2010,07,12,03,09,27.40
2010,07,12,03,10,32.20
2010,07,12,03,11,20.90
2010,07,12,03,12,19.30
2010,07,12,03,13,16.10
2010,07,12,03,14,14.50
2010,07,12,03,15,17.70
2010,07,12,03,16,16.10
2010,07,12,03,17,27.40
2010,07,12,03,18,19.30
2010,07,12,03,19,16.10
2010,07,12,03,20,11.30
2010,07,12,03,21,24.20
2010,07,12,03,22,17.70
2010,07,12,03,23,17.70
2010,07,12,03,24,22.50
2010,07,12,03,25,17.70
2010,07,12,03,26,20.90
2010,07,12,03,27,17.70
2010,07,12,03,28,14.50
2010,07,12,03,29,22.50
2010,07,12,03,30,35.40
2010,07,12,03,31,29.00
2010,07,12,03,32,22.50
2010,07,12,03,33,12.90
2010,07,12,03,34,30.60
2010,07,12,03,35,16.10
2010,07,12,03,36,22.50
2010,07,12,03,37,20.90
2010,07,12,03,38,20.90
2010,07,12,03,39,19.30
2010,07,12,03,40,22.50
2010,07,12,03,41,19.30
2010,07,12,03,42,24.20
2010,07,12,03,43,25.70
2010,07,12,03,44,25.70
2010,07,12,03,45,27.40
2010,07,12,03,46,14.50
2010,07,12,03,47,17.70
2010,07,12,03,48,17.70
2010,07,12,03,49,25.70
2010,07,12,03,50,29.00
2010,07,12,03,51,22.50
2010,07,12,03,52,20.90
2010,07,12,03,53,27.40
2010,07,12,03,54,20.90
2010,07,12,03,55,20.90
2010,07,12,03,56,14.50
2010,07,12,03,57,20.90
2010,07,12,03,58,24.20
2010,07,12,03,59,20.90
2010,07,12,04,00,14.50
2010,07,12,04,01,9.60
2010,07,12,04,02,12.90
2010,07,12,04,03,22.50
2010,07,12,04,04,22.50
2010,07,12,04,05,17.70
2010,07,12,04,06,16.10
2010,07,12,04,07,20.90
2010,07,12,04,08,11.30
2010,07,12,04,09,16.10
2010,07,12,04,10,16.10
2010,07,12,04,11,22.50
2010,07,12,04,12,19.30
2010,07,12,04,13,30.60
2010,07,12,04,14,20.90
2010,07,12,04,15,24.20
2010,07,12,04,16,20.90
2010,07,12,04,17,19.30
2010,07,12,04,18,19.30
2010,07,12,04,19,14.50
2010,07,12,04,20,22.50
2010,07,12,04,21,30.60
2010,07,12,04,22,17.70
2010,07,12,04,23,16.10
2010,07,12,04,24,19.30
2010,07,12,04,25,27.40
2010,07,12,04,26,16.10
2010,07,12,04,27,25.70
2010,07,12,04,28,20.90
2010,07,12,04,29,20.90
2010,07,12,04,30,32.20
2010,07,12,04,31,24.20
2010,07,12,04,32,25.70
2010,07,12,04,33,24.20
2010,07,12,04,34,20.90
2010,07,12,04,35,24.20
2010,07,12,04,36,25.70
2010,07,12,04,37,17.70
2010,07,12,04,38,14.50
2010,07,12,04,39,20.90
2010,07,12,04,40,22.50
2010,07,12,04,41,19.30
2010,07,12,04,42,16.10
2010,07,12,04,43,19.30
2010,07,12,04,44,16.10
2010,07,12,04,45,17.70
2010,07,12,04,46,17.70
2010,07,12,04,47,19.30
2010,07,12,04,48,20.90
2010,07,12,04,49,19.30
2010,07,12,04,50,8.10
2010,07,12,04,51,9.60
2010,07,12,04,52,16.10
2010,07,12,04,53,17.70
2010,07,12,04,54,14.50
2010,07,12,04,55,6.40
2010,07,12,04,56,17.70
2010,07,12,04,57,20.90
2010,07,12,04,58,20.90
2010,07,12,04,59,9.60
2010,07,12,05,00,9.60
2010,07,12,05,01,8.10
2010,07,12,05,02,11.30
2010,07,12,05,03,17.70
2010,07,12,05,04,11.30
2010,07,12,05,05,16.10
2010,07,12,05,06,20.90
2010,07,12,05,07,16.10
2010,07,12,05,08,14.50
2010,07,12,05,09,8.10
2010,07,12,05,10,9.60
2010,07,12,05,11,9.60
2010,07,12,05,12,8.10
2010,07,12,05,13,14.50
2010,07,12,05,14,17.70
2010,07,12,05,15,17.70
2010,07,12,05,16,12.90
2010,07,12,05,17,9.60
2010,07,12,05,18,16.10
2010,07,12,05,19,16.10
2010,07,12,05,20,16.10
2010,07,12,05,21,11.30
2010,07,12,05,22,17.70
2010,07,12,05,23,9.60
2010,07,12,05,24,9.60
2010,07,12,05,25,11.30
2010,07,12,05,26,9.60
2010,07,12,05,27,4.80
2010,07,12,05,28,11.30
2010,07,12,05,29,9.60
2010,07,12,05,30,11.30
2010,07,12,05,31,11.30
2010,07,12,05,32,9.60
2010,07,12,05,33,9.60
2010,07,12,05,34,8.10
2010,07,12,05,35,8.10
2010,07,12,05,36,9.60
2010,07,12,05,37,11.30
2010,07,12,05,38,11.30
2010,07,12,05,39,17.70
2010,07,12,05,40,22.50
2010,07,12,05,41,19.30
2010,07,12,05,42,17.70
2010,07,12,05,43,14.50
2010,07,12,05,44,14.50
2010,07,12,05,45,11.30
2010,07,12,05,46,14.50
2010,07,12,05,47,17.70
2010,07,12,05,48,19.30
2010,07,12,05,49,14.50
2010,07,12,05,50,12.90
2010,07,12,05,51,12.90
2010,07,12,05,52,11.30
2010,07,12,05,53,19.30
2010,07,12,05,54,17.70
2010,07,12,05,55,16.10
2010,07,12,05,56,11.30
2010,07,12,05,57,16.10
2010,07,12,05,58,16.10
2010,07,12,05,59,20.90
2010,07,12,06,00,19.30
2010,07,12,06,01,17.70
2010,07,12,06,02,14.50
2010,07,12,06,03,16.10
2010,07,12,06,04,14.50
2010,07,12,06,05,11.30
2010,07,12,06,06,9.60
2010,07,12,06,07,9.60
2010,07,12,06,08,16.10
2010,07,12,06,09,14.50
2010,07,12,06,10,14.50
2010,07,12,06,11,14.50
2010,07,12,06,12,24.20
2010,07,12,06,13,19.30
2010,07,12,06,14,22.50
2010,07,12,06,15,16.10
2010,07,12,06,16,16.10
2010,07,12,06,17,14.50
2010,07,12,06,18,11.30
2010,07,12,06,19,8.10
2010,07,12,06,20,9.60
2010,07,12,06,21,16.10
2010,07,12,06,22,20.90
2010,07,12,06,23,14.50
2010,07,12,06,24,14.50
2010,07,12,06,25,17.70
2010,07,12,06,26,20.90
2010,07,12,06,27,14.50
2010,07,12,06,28,9.60
2010,07,12,06,29,19.30
2010,07,12,06,30,17.70
2010,07,12,06,31,14.50
2010,07,12,06,32,9.60
2010,07,12,06,33,8.10
2010,07,12,06,34,14.50
2010,07,12,06,35,14.50
2010,07,12,06,36,9.60
2010,07,12,06,37,8.10
2010,07,12,06,38,22.50
2010,07,12,06,39,22.50
2010,07,12,06,40,17.70
2010,07,12,06,41,11.30
2010,07,12,06,42,9.60
2010,07,12,06,43,11.30
2010,07,12,06,44,12.90
2010,07,12,06,45,11.30
2010,07,12,06,46,14.50
2010,07,12,06,47,12.90
2010,07,12,06,48,9.60
2010,07,12,06,49,6.40
2010,07,12,06,50,8.10
2010,07,12,06,51,11.30
2010,07,12,06,52,9.60
2010,07,12,06,53,8.10
2010,07,12,06,54,4.80
2010,07,12,06,55,6.40
2010,07,12,06,56,4.80
2010,07,12,06,57,4.80
2010,07,12,06,58,6.40
2010,07,12,06,59,4.80
2010,07,12,07,00,11.30
2010,07,12,07,01,9.60
2010,07,12,07,02,6.40
2010,07,12,07,03,6.40
2010,07,12,07,04,8.10
2010,07,12,07,05,9.60
2010,07,12,07,06,17.70
2010,07,12,07,07,16.10
2010,07,12,07,08,14.50
2010,07,12,07,09,14.50
2010,07,12,07,10,9.60
2010,07,12,07,11,4.80
2010,07,12,07,12,6.40
2010,07,12,07,13,11.30
2010,07,12,07,14,9.60
2010,07,12,07,15,9.60
2010,07,12,07,16,11.30
2010,07,12,07,17,9.60
2010,07,12,07,18,6.40
2010,07,12,07,19,6.40
2010,07,12,07,20,6.40
2010,07,12,07,21,9.60
2010,07,12,07,22,17.70
2010,07,12,07,23,14.50
2010,07,12,07,24,19.30
2010,07,12,07,25,20.90
2010,07,12,07,26,17.70
2010,07,12,07,27,22.50
2010,07,12,07,28,19.30
2010,07,12,07,29,22.50
2010,07,12,07,30,11.30
2010,07,12,07,31,11.30
2010,07,12,07,32,22.50
2010,07,12,07,33,11.30
2010,07,12,07,34,20.90
2010,07,12,07,35,16.10
2010,07,12,07,36,17.70
2010,07,12,07,37,17.70
2010,07,12,07,38,14.50
2010,07,12,07,39,14.50
2010,07,12,07,40,11.30
2010,07,12,07,41,11.30
2010,07,12,07,42,11.30
2010,07,12,07,43,19.30
2010,07,12,07,44,22.50
2010,07,12,07,45,17.70
2010,07,12,07,46,22.50
2010,07,12,07,47,19.30
2010,07,12,07,48,33.80
2010,07,12,07,49,29.00
2010,07,12,07,50,22.50
2010,07,12,07,51,19.30
2010,07,12,07,52,19.30
2010,07,12,07,53,22.50
2010,07,12,07,54,16.10
2010,07,12,07,55,16.10
2010,07,12,07,56,22.50
2010,07,12,07,57,20.90
2010,07,12,07,58,25.70
2010,07,12,07,59,22.50
2010,07,12,08,00,20.90
2010,07,12,08,01,25.70
2010,07,12,08,02,22.50
2010,07,12,08,03,19.30
2010,07,12,08,04,24.20
2010,07,12,08,05,20.90
2010,07,12,08,06,29.00
2010,07,12,08,07,19.30
2010,07,12,08,08,19.30
2010,07,12,08,09,17.70
2010,07,12,08,10,25.70
2010,07,12,08,11,33.80
2010,07,12,08,12,24.20
2010,07,12,08,13,22.50
2010,07,12,08,14,24.20
2010,07,12,08,15,32.20
2010,07,12,08,16,20.90
2010,07,12,08,17,22.50
2010,07,12,08,18,27.40
2010,07,12,08,19,20.90
2010,07,12,08,20,29.00
2010,07,12,08,21,17.70
2010,07,12,08,22,20.90
2010,07,12,08,23,17.70
2010,07,12,08,24,24.20
2010,07,12,08,25,20.90
2010,07,12,08,26,22.50
2010,07,12,08,27,24.20
2010,07,12,08,28,22.50
2010,07,12,08,29,35.40
2010,07,12,08,30,25.70
2010,07,12,08,31,27.40
2010,07,12,08,32,9.60
2010,07,12,08,33,24.20
2010,07,12,08,34,22.50
2010,07,12,08,35,27.40
2010,07,12,08,36,22.50
2010,07,12,08,37,20.90
2010,07,12,08,38,27.40
2010,07,12,08,39,19.30
2010,07,12,08,40,20.90
2010,07,12,08,41,25.70
2010,07,12,08,42,25.70
2010,07,12,08,43,20.90
2010,07,12,08,44,16.10
2010,07,12,08,45,30.60
2010,07,12,08,46,25.70
2010,07,12,08,47,24.20
2010,07,12,08,48,27.40
2010,07,12,08,49,30.60
2010,07,12,08,50,27.40
2010,07,12,08,51,30.60
2010,07,12,08,52,30.60
2010,07,12,08,53,33.80
2010,07,12,08,54,17.70
2010,07,12,08,55,25.70
2010,07,12,08,56,30.60
2010,07,12,08,57,22.50
2010,07,12,08,58,11.30
2010,07,12,08,59,14.50
2010,07,12,09,00,35.40
2010,07,12,09,01,35.40
2010,07,12,09,02,33.80
2010,07,12,09,03,24.20
2010,07,12,09,04,19.30
2010,07,12,09,05,32.20
2010,07,12,09,06,37.00
2010,07,12,09,07,30.60
2010,07,12,09,08,25.70
2010,07,12,09,09,22.50
2010,07,12,09,10,25.70
2010,07,12,09,11,25.70
2010,07,12,09,12,19.30
2010,07,12,09,13,22.50
2010,07,12,09,14,17.70
2010,07,12,09,15,20.90
2010,07,12,09,16,30.60
2010,07,12,09,17,24.20
2010,07,12,09,18,25.70
2010,07,12,09,19,22.50
2010,07,12,09,20,27.40
2010,07,12,09,21,27.40
2010,07,12,09,22,25.70
2010,07,12,09,23,20.90
2010,07,12,09,24,20.90
2010,07,12,09,25,29.00
2010,07,12,09,26,27.40
2010,07,12,09,27,29.00
2010,07,12,09,28,29.00
2010,07,12,09,29,22.50
2010,07,12,09,30,24.20
2010,07,12,09,31,25.70
2010,07,12,09,32,16.10
2010,07,12,09,33,22.50
2010,07,12,09,34,19.30
2010,07,12,09,35,19.30
2010,07,12,09,36,20.90
2010,07,12,09,37,19.30
2010,07,12,09,38,22.50
2010,07,12,09,39,27.40
2010,07,12,09,40,27.40
2010,07,12,09,41,35.40
2010,07,12,09,42,25.70
2010,07,12,09,43,20.90
2010,07,12,09,44,20.90
2010,07,12,09,45,29.00
2010,07,12,09,46,32.20
2010,07,12,09,47,25.70
2010,07,12,09,48,35.40
2010,07,12,09,49,29.00
2010,07,12,09,50,24.20
2010,07,12,09,51,33.80
2010,07,12,09,52,29.00
2010,07,12,09,53,25.70
2010,07,12,09,54,27.40
2010,07,12,09,55,25.70
2010,07,12,09,56,33.80
2010,07,12,09,57,29.00
2010,07,12,09,58,27.40
2010,07,12,09,59,35.40
2010,07,12,10,00,20.90
2010,07,12,10,01,35.40
2010,07,12,10,02,27.40
2010,07,12,10,03,30.60
2010,07,12,10,04,24.20
2010,07,12,10,05,27.40
2010,07,12,10,06,20.90
2010,07,12,10,07,24.20
2010,07,12,10,08,17.70
2010,07,12,10,09,20.90
2010,07,12,10,10,25.70
2010,07,12,10,11,22.50
2010,07,12,10,12,29.00
2010,07,12,10,13,25.70
2010,07,12,10,14,38.60
2010,07,12,10,15,20.90
2010,07,12,10,16,29.00
2010,07,12,10,17,22.50
2010,07,12,10,18,22.50
2010,07,12,10,19,30.60
2010,07,12,10,20,20.90
2010,07,12,10,21,30.60
2010,07,12,10,22,30.60
2010,07,12,10,23,17.70
2010,07,12,10,24,22.50
2010,07,12,10,25,37.00
2010,07,12,10,26,38.60
2010,07,12,10,27,20.90
2010,07,12,10,28,29.00
2010,07,12,10,29,22.50
2010,07,12,10,30,22.50
2010,07,12,10,31,24.20
2010,07,12,10,32,46.70
2010,07,12,10,33,22.50
2010,07,12,10,34,22.50
2010,07,12,10,35,37.00
2010,07,12,10,36,40.20
2010,07,12,10,37,30.60
2010,07,12,10,38,24.20
2010,07,12,10,39,30.60
2010,07,12,10,40,29.00
2010,07,12,10,41,22.50
2010,07,12,10,42,24.20
2010,07,12,10,43,24.20
2010,07,12,10,44,22.50
2010,07,12,10,45,19.30
2010,07,12,10,46,24.20
2010,07,12,10,47,27.40
2010,07,12,10,48,35.40
2010,07,12,10,49,20.90
2010,07,12,10,50,22.50
2010,07,12,10,51,30.60
2010,07,12,10,52,29.00
2010,07,12,10,53,29.00
2010,07,12,10,54,32.20
2010,07,12,10,55,33.80
2010,07,12,10,56,33.80
2010,07,12,10,57,41.80
2010,07,12,10,58,38.60
2010,07,12,10,59,29.00
2010,07,12,11,00,30.60
2010,07,12,11,01,25.70
2010,07,12,11,02,24.20
2010,07,12,11,03,33.80
2010,07,12,11,04,33.80
2010,07,12,11,05,22.50
2010,07,12,11,06,27.40
2010,07,12,11,07,17.70
2010,07,12,11,08,27.40
2010,07,12,11,09,37.00
2010,07,12,11,10,33.80
2010,07,12,11,11,32.20
2010,07,12,11,12,30.60
2010,07,12,11,13,37.00
2010,07,12,11,14,24.20
2010,07,12,11,15,22.50
2010,07,12,11,16,24.20
2010,07,12,11,17,25.70
2010,07,12,11,18,22.50
2010,07,12,11,19,27.40
2010,07,12,11,20,20.90
2010,07,12,11,21,37.00
2010,07,12,11,22,32.20
2010,07,12,11,23,27.40
2010,07,12,11,24,29.00
2010,07,12,11,25,29.00
2010,07,12,11,26,29.00
2010,07,12,11,27,30.60
2010,07,12,11,28,25.70
2010,07,12,11,29,27.40
2010,07,12,11,30,27.40
2010,07,12,11,31,17.70
2010,07,12,11,32,14.50
2010,07,12,11,33,17.70
2010,07,12,11,34,38.60
2010,07,12,11,35,30.60
2010,07,12,11,36,30.60
2010,07,12,11,37,19.30
2010,07,12,11,38,22.50
2010,07,12,11,39,27.40
2010,07,12,11,40,25.70
2010,07,12,11,41,25.70
2010,07,12,11,42,20.90
2010,07,12,11,43,37.00
2010,07,12,11,44,32.20
2010,07,12,11,45,37.00
2010,07,12,11,46,37.00
2010,07,12,11,47,33.80
2010,07,12,11,48,33.80
2010,07,12,11,49,27.40
2010,07,12,11,50,25.70
2010,07,12,11,51,30.60
2010,07,12,11,52,29.00
2010,07,12,11,53,19.30
2010,07,12,11,54,22.50
2010,07,12,11,55,25.70
2010,07,12,11,56,22.50
2010,07,12,11,57,19.30
2010,07,12,11,58,24.20
2010,07,12,11,59,25.70
2010,07,12,12,00,32.20
2010,07,12,12,01,22.50
2010,07,12,12,02,25.70
2010,07,12,12,03,25.70
2010,07,12,12,04,25.70
2010,07,12,12,05,25.70
2010,07,12,12,06,33.80
2010,07,12,12,07,29.00
2010,07,12,12,08,24.20
2010,07,12,12,09,27.40
2010,07,12,12,10,27.40
2010,07,12,12,11,6.40
2010,07,12,12,12,24.20
2010,07,12,12,13,24.20
2010,07,12,12,14,27.40
2010,07,12,12,15,20.90
2010,07,12,12,16,19.30
2010,07,12,12,17,30.60
2010,07,12,12,18,25.70
2010,07,12,12,19,29.00
2010,07,12,12,20,14.50
2010,07,12,12,21,29.00
2010,07,12,12,22,25.70
2010,07,12,12,23,20.90
2010,07,12,12,24,25.70
2010,07,12,12,25,27.40
2010,07,12,12,26,30.60
2010,07,12,12,27,32.20
2010,07,12,12,28,27.40
2010,07,12,12,29,30.60
2010,07,12,12,30,22.50
2010,07,12,12,31,27.40
2010,07,12,12,32,24.20
2010,07,12,12,33,25.70
2010,07,12,12,34,33.80
2010,07,12,12,35,25.70
2010,07,12,12,36,27.40
2010,07,12,12,37,33.80
2010,07,12,12,38,20.90
2010,07,12,12,39,25.70
2010,07,12,12,40,25.70
2010,07,12,12,41,22.50
2010,07,12,12,42,29.00
2010,07,12,12,43,29.00
2010,07,12,12,44,27.40
2010,07,12,12,45,32.20
2010,07,12,12,46,32.20
2010,07,12,12,47,25.70
2010,07,12,12,48,33.80
2010,07,12,12,49,30.60
2010,07,12,12,50,17.70
2010,07,12,12,51,20.90
2010,07,12,12,52,22.50
2010,07,12,12,53,32.20
2010,07,12,12,54,32.20
2010,07,12,12,55,30.60
2010,07,12,12,56,27.40
2010,07,12,12,57,27.40
2010,07,12,12,58,30.60
2010,07,12,12,59,32.20
2010,07,12,13,00,24.20
2010,07,12,13,01,20.90
2010,07,12,13,02,24.20
2010,07,12,13,03,30.60
2010,07,12,13,04,29.00
2010,07,12,13,05,24.20
2010,07,12,13,06,22.50
2010,07,12,13,07,25.70
2010,07,12,13,08,32.20
2010,07,12,13,09,25.70
2010,07,12,13,10,30.60
2010,07,12,13,11,29.00
2010,07,12,13,12,29.00
2010,07,12,13,13,35.40
2010,07,12,13,14,24.20
2010,07,12,13,15,29.00
2010,07,12,13,16,24.20
2010,07,12,13,17,29.00
2010,07,12,13,18,27.40
2010,07,12,13,19,29.00
2010,07,12,13,20,20.90
2010,07,12,13,21,22.50
2010,07,12,13,22,24.20
2010,07,12,13,23,19.30
2010,07,12,13,24,20.90
2010,07,12,13,25,40.20
2010,07,12,13,26,25.70
2010,07,12,13,27,29.00
2010,07,12,13,28,30.60
2010,07,12,13,29,32.20
2010,07,12,13,30,29.00
2010,07,12,13,31,22.50
2010,07,12,13,32,20.90
2010,07,12,13,33,25.70
2010,07,12,13,34,25.70
2010,07,12,13,35,30.60
2010,07,12,13,36,27.40
2010,07,12,13,37,33.80
2010,07,12,13,38,25.70
2010,07,12,13,39,37.00
2010,07,12,13,40,27.40
2010,07,12,13,41,35.40
2010,07,12,13,42,25.70
2010,07,12,13,43,32.20
2010,07,12,13,44,35.40
2010,07,12,13,45,22.50
2010,07,12,13,46,35.40
2010,07,12,13,47,30.60
2010,07,12,13,48,27.40
2010,07,12,13,49,20.90
2010,07,12,13,50,29.00
2010,07,12,13,51,27.40
2010,07,12,13,52,27.40
2010,07,12,13,53,22.50
2010,07,12,13,54,33.80
2010,07,12,13,55,29.00
2010,07,12,13,56,22.50
2010,07,12,13,57,30.60
2010,07,12,13,58,30.60
2010,07,12,13,59,29.00
2010,07,12,14,00,27.40
2010,07,12,14,01,32.20
2010,07,12,14,02,32.20
2010,07,12,14,03,27.40
2010,07,12,14,04,30.60
2010,07,12,14,05,32.20
2010,07,12,14,06,35.40
2010,07,12,14,07,27.40
2010,07,12,14,08,29.00
2010,07,12,14,09,29.00
2010,07,12,14,10,25.70
2010,07,12,14,11,27.40
2010,07,12,14,12,20.90
2010,07,12,14,13,22.50
2010,07,12,14,14,25.70
2010,07,12,14,15,24.20
2010,07,12,14,16,24.20
2010,07,12,14,17,24.20
2010,07,12,14,18,19.30
2010,07,12,14,19,20.90
2010,07,12,14,20,24.20
2010,07,12,14,21,24.20
2010,07,12,14,22,24.20
2010,07,12,14,23,33.80
2010,07,12,14,24,24.20
2010,07,12,14,25,24.20
2010,07,12,14,26,22.50
2010,07,12,14,27,33.80
2010,07,12,14,28,30.60
2010,07,12,14,29,25.70
2010,07,12,14,30,25.70
2010,07,12,14,31,25.70
2010,07,12,14,32,25.70
2010,07,12,14,33,22.50
2010,07,12,14,34,30.60
2010,07,12,14,35,33.80
2010,07,12,14,36,25.70
2010,07,12,14,37,32.20
2010,07,12,14,38,27.40
2010,07,12,14,39,22.50
2010,07,12,14,40,24.20
2010,07,12,14,41,25.70
2010,07,12,14,42,37.00
2010,07,12,14,43,29.00
2010,07,12,14,44,32.20
2010,07,12,14,45,29.00
2010,07,12,14,46,35.40
2010,07,12,14,47,24.20
2010,07,12,14,48,25.70
2010,07,12,14,49,24.20
2010,07,12,14,50,30.60
2010,07,12,14,51,33.80
2010,07,12,14,52,38.60
2010,07,12,14,53,27.40
2010,07,12,14,54,33.80
2010,07,12,14,55,30.60
2010,07,12,14,56,33.80
2010,07,12,14,57,27.40
2010,07,12,14,58,20.90
2010,07,12,14,59,27.40
2010,07,12,15,00,24.20
2010,07,12,15,01,30.60
2010,07,12,15,02,27.40
2010,07,12,15,03,29.00
2010,07,12,15,04,22.50
2010,07,12,15,05,32.20
2010,07,12,15,06,30.60
2010,07,12,15,07,29.00
2010,07,12,15,08,30.60
2010,07,12,15,09,24.20
2010,07,12,15,10,30.60
2010,07,12,15,11,29.00
2010,07,12,15,12,29.00
2010,07,12,15,13,25.70
2010,07,12,15,14,24.20
2010,07,12,15,15,20.90
2010,07,12,15,16,20.90
2010,07,12,15,17,33.80
2010,07,12,15,18,24.20
2010,07,12,15,19,30.60
2010,07,12,15,20,24.20
2010,07,12,15,21,25.70
2010,07,12,15,22,25.70
2010,07,12,15,23,35.40
2010,07,12,15,24,40.20
2010,07,12,15,25,25.70
2010,07,12,15,26,27.40
2010,07,12,15,27,33.80
2010,07,12,15,28,33.80
2010,07,12,15,29,24.20
2010,07,12,15,30,33.80
2010,07,12,15,31,29.00
2010,07,12,15,32,30.60
2010,07,12,15,33,29.00
2010,07,12,15,34,22.50
2010,07,12,15,35,20.90
2010,07,12,15,36,24.20
2010,07,12,15,37,16.10
2010,07,12,15,38,25.70
2010,07,12,15,39,24.20
2010,07,12,15,40,16.10
2010,07,12,15,41,30.60
2010,07,12,15,42,25.70
2010,07,12,15,43,30.60
2010,07,12,15,44,32.20
2010,07,12,15,45,35.40
2010,07,12,15,46,33.80
2010,07,12,15,47,29.00
2010,07,12,15,48,33.80
2010,07,12,15,49,29.00
2010,07,12,15,50,25.70
2010,07,12,15,51,33.80
2010,07,12,15,52,29.00
2010,07,12,15,53,19.30
2010,07,12,15,54,25.70
2010,07,12,15,55,33.80
2010,07,12,15,56,32.20
2010,07,12,15,57,25.70
2010,07,12,15,58,24.20
2010,07,12,15,59,33.80
2010,07,12,16,00,29.00
2010,07,12,16,01,29.00
2010,07,12,16,02,25.70
2010,07,12,16,03,22.50
2010,07,12,16,04,22.50
2010,07,12,16,05,29.00
2010,07,12,16,06,30.60
2010,07,12,16,07,35.40
2010,07,12,16,08,25.70
2010,07,12,16,09,16.10
2010,07,12,16,10,25.70
2010,07,12,16,11,27.40
2010,07,12,16,12,27.40
2010,07,12,16,13,29.00
2010,07,12,16,14,29.00
2010,07,12,16,15,37.00
2010,07,12,16,16,33.80
2010,07,12,16,17,25.70
2010,07,12,16,18,24.20
2010,07,12,16,19,27.40
2010,07,12,16,20,27.40
2010,07,12,16,21,24.20
2010,07,12,16,22,29.00
2010,07,12,16,23,33.80
2010,07,12,16,24,25.70
2010,07,12,16,25,27.40
2010,07,12,16,26,32.20
2010,07,12,16,27,20.90
2010,07,12,16,28,24.20
2010,07,12,16,29,24.20
2010,07,12,16,30,20.90
2010,07,12,16,31,29.00
2010,07,12,16,32,22.50
2010,07,12,16,33,20.90
2010,07,12,16,34,27.40
2010,07,12,16,35,19.30
2010,07,12,16,36,35.40
2010,07,12,16,37,29.00
2010,07,12,16,38,16.10
2010,07,12,16,39,30.60
2010,07,12,16,40,24.20
2010,07,12,16,41,24.20
2010,07,12,16,42,27.40
2010,07,12,16,43,25.70
2010,07,12,16,44,19.30
2010,07,12,16,45,37.00
2010,07,12,16,46,33.80
2010,07,12,16,47,24.20
2010,07,12,16,48,30.60
2010,07,12,16,49,25.70
2010,07,12,16,50,29.00
2010,07,12,16,51,20.90
2010,07,12,16,52,25.70
2010,07,12,16,53,30.60
2010,07,12,16,54,24.20
2010,07,12,16,55,33.80
2010,07,12,16,56,35.40
2010,07,12,16,57,30.60
2010,07,12,16,58,20.90
2010,07,12,16,59,30.60
2010,07,12,17,00,32.20
2010,07,12,17,01,17.70
2010,07,12,17,02,22.50
2010,07,12,17,03,22.50
2010,07,12,17,04,22.50
2010,07,12,17,05,27.40
2010,07,12,17,06,25.70
2010,07,12,17,07,35.40
2010,07,12,17,08,29.00
2010,07,12,17,09,20.90
2010,07,12,17,10,40.20
2010,07,12,17,11,25.70
2010,07,12,17,12,20.90
2010,07,12,17,13,19.30
2010,07,12,17,14,25.70
2010,07,12,17,15,19.30
2010,07,12,17,16,24.20
2010,07,12,17,17,33.80
2010,07,12,17,18,27.40
2010,07,12,17,19,30.60
2010,07,12,17,20,33.80
2010,07,12,17,21,35.40
2010,07,12,17,22,22.50